| time (UTC) | temp F | wind direction | speed knots | gust knots | rain 1hr in | rain 24hr in | rain mn in | humidity % | barometer mb |
| 20260505052146 | 57 | 282 | 3.5 | 15.6 | 0.00 | 0.00 | 0.00 | 63 | 1009.5 |
| 20260505051643 | 57 | 237 | 7.0 | 12.2 | 0.00 | 0.00 | 0.00 | 62 | 1009.7 |
| 20260505051142 | 57 | 195 | 5.2 | 10.4 | 0.00 | 0.00 | 0.00 | 62 | 1009.8 |
| 20260505050639 | 57 | 228 | 7.8 | 11.3 | 0.00 | 0.00 | 0.00 | 62 | 1009.7 |
| 20260505050137 | 58 | 227 | 8.7 | 11.3 | 0.00 | 0.00 | 0.00 | 61 | 1009.7 |
| 20260505041607 | 58 | 216 | 4.3 | 9.6 | 0.00 | 0.00 | 0.00 | 58 | 1009.8 |
| 20260505041104 | 58 | 213 | 6.1 | 11.3 | 0.00 | 0.00 | 0.00 | 58 | 1009.6 |
| 20260505040601 | 58 | 206 | 6.1 | 15.6 | 0.00 | 0.00 | 0.00 | 58 | 1009.4 |
| 20260505040058 | 59 | 196 | 11.3 | 13.0 | 0.00 | 0.00 | 0.00 | 57 | 1009.4 |
| 20260505035554 | 59 | 206 | 7.0 | 20.0 | 0.00 | 0.00 | 0.00 | 57 | 1009.6 |
| 20260505035051 | 59 | 225 | 8.7 | 13.9 | 0.00 | 0.00 | 0.00 | 57 | 1009.5 |
| 20260505034548 | 59 | 233 | 8.7 | 12.2 | 0.00 | 0.00 | 0.00 | 57 | 1009.6 |
| 20260505034044 | 59 | 222 | 5.2 | 13.9 | 0.00 | 0.00 | 0.00 | 56 | 1009.5 |
| 20260505033541 | 59 | 236 | 7.8 | 14.8 | 0.00 | 0.00 | 0.00 | 56 | 1009.3 |
| 20260505033040 | 59 | 200 | 8.7 | 16.5 | 0.00 | 0.00 | 0.00 | 55 | 1009.3 |
| 20260505032537 | 59 | 208 | 10.4 | 18.2 | 0.00 | 0.00 | 0.00 | 55 | 1009.4 |
| 20260505032033 | 59 | 201 | 7.8 | 13.9 | 0.00 | 0.00 | 0.00 | 55 | 1009.3 |
| 20260505031531 | 59 | 223 | 5.2 | 9.6 | 0.00 | 0.00 | 0.00 | 55 | 1009.2 |
| 20260505031027 | 60 | 216 | 4.3 | 13.9 | 0.00 | 0.00 | 0.00 | 54 | 1009.1 |
| 20260505030524 | 60 | 217 | 6.1 | 14.8 | 0.00 | 0.00 | 0.00 | 54 | 1009.1 |
| 20260505030020 | 60 | 214 | 9.6 | 13.0 | 0.00 | 0.00 | 0.00 | 54 | 1009.4 |
| 20260505025516 | 60 | 242 | 4.3 | 7.8 | 0.00 | 0.00 | 0.00 | 54 | 1009.4 |
| 20260505025016 | 60 | 213 | 12.2 | 12.2 | 0.00 | 0.00 | 0.00 | 54 | 1009.2 |
| 20260505024512 | 60 | 211 | 6.1 | 15.6 | 0.00 | 0.00 | 0.00 | 53 | 1009.2 |
| 20260505024009 | 60 | 207 | 19.1 | 19.1 | 0.00 | 0.00 | 0.00 | 53 | 1009.2 |
| 20260505023506 | 60 | 231 | 9.6 | 13.0 | 0.00 | 0.00 | 0.00 | 53 | 1009.3 |
| 20260505023003 | 60 | 209 | 6.1 | 12.2 | 0.00 | 0.00 | 0.00 | 53 | 1009.2 |
| 20260505022501 | 60 | 218 | 8.7 | 13.0 | 0.00 | 0.00 | 0.00 | 52 | 1009.3 |
| 20260505021958 | 61 | 219 | 3.5 | 16.5 | 0.00 | 0.00 | 0.00 | 52 | 1009.2 |
| 20260505021454 | 61 | 208 | 9.6 | 13.9 | 0.00 | 0.00 | 0.00 | 51 | 1009.3 |
| 20260505020950 | 61 | 196 | 7.8 | 12.2 | 0.00 | 0.00 | 0.00 | 51 | 1009.4 |
| 20260505020445 | 61 | 222 | 10.4 | 16.5 | 0.00 | 0.00 | 0.00 | 51 | 1009.3 |
| 20260505015942 | 62 | 201 | 11.3 | 19.1 | 0.00 | 0.00 | 0.00 | 50 | 1009.3 |
| 20260505015440 | 62 | 218 | 8.7 | 21.7 | 0.00 | 0.00 | 0.00 | 49 | 1009.1 |
| 20260505014937 | 62 | 222 | 11.3 | 16.5 | 0.00 | 0.00 | 0.00 | 49 | 1009.1 |
| 20260505014433 | 62 | 204 | 13.0 | 13.9 | 0.00 | 0.00 | 0.00 | 50 | 1009.2 |
| 20260505013931 | 62 | 229 | 11.3 | 16.5 | 0.00 | 0.00 | 0.00 | 49 | 1008.9 |
| 20260505013428 | 62 | 218 | 9.6 | 14.8 | 0.00 | 0.00 | 0.00 | 49 | 1008.8 |
| 20260505012925 | 63 | 200 | 12.2 | 19.1 | 0.00 | 0.00 | 0.00 | 49 | 1008.9 |
| 20260505012423 | 63 | 199 | 10.4 | 14.8 | 0.00 | 0.00 | 0.00 | 49 | 1008.9 |
| 20260505011919 | 63 | 218 | 7.0 | 13.0 | 0.00 | 0.00 | 0.00 | 49 | 1008.7 |
| 20260505011416 | 63 | 196 | 7.8 | 17.4 | 0.00 | 0.00 | 0.00 | 48 | 1008.5 |
| 20260505010913 | 63 | 192 | 7.0 | 15.6 | 0.00 | 0.00 | 0.00 | 48 | 1008.5 |
| 20260505010408 | 63 | 199 | 6.1 | 11.3 | 0.00 | 0.00 | 0.00 | 48 | 1008.6 |
| 20260505005904 | 64 | 206 | 7.0 | 13.0 | 0.00 | 0.00 | 0.00 | 48 | 1008.2 |
| 20260505005401 | 64 | 223 | 11.3 | 15.6 | 0.00 | 0.00 | 0.00 | 48 | 1008.2 |
| 20260505004859 | 64 | 239 | 13.0 | 20.9 | 0.00 | 0.00 | 0.00 | 47 | 1007.7 |
| 20260505004355 | 64 | 200 | 7.0 | 18.2 | 0.00 | 0.00 | 0.00 | 47 | 1008.0 |
| 20260505003852 | 65 | 205 | 6.1 | 20.9 | 0.00 | 0.00 | 0.00 | 46 | 1007.7 |
| 20260505003350 | 65 | 202 | 17.4 | 20.0 | 0.00 | 0.00 | 0.00 | 46 | 1007.5 |
| 20260505002845 | 65 | 213 | 6.1 | 13.0 | 0.00 | 0.00 | 0.00 | 45 | 1007.5 |
| 20260505002342 | 65 | 216 | 7.0 | 16.5 | 0.00 | 0.00 | 0.00 | 44 | 1007.3 |
| 20260505001841 | 66 | 207 | 11.3 | 17.4 | 0.00 | 0.00 | 0.00 | 44 | 1006.7 |
| 20260505001338 | 66 | 225 | 14.8 | 18.2 | 0.00 | 0.00 | 0.00 | 43 | 1007.0 |
| 20260505000835 | 66 | 191 | 10.4 | 20.9 | 0.00 | 0.00 | 0.00 | 43 | 1006.7 |
| 20260505000333 | 66 | 216 | 3.5 | 11.3 | 0.00 | 0.00 | 0.00 | 42 | 1006.4 |
| 20260504235829 | 67 | 202 | 12.2 | 16.5 | 0.00 | 0.00 | 0.00 | 41 | 1006.4 |
| 20260504235326 | 67 | 207 | 3.5 | 13.9 | 0.00 | 0.00 | 0.00 | 40 | 1006.5 |
| 20260504234823 | 68 | 189 | 4.3 | 7.8 | 0.00 | 0.00 | 0.00 | 37 | 1006.3 |
| 20260504234320 | 68 | 194 | 5.2 | 7.8 | 0.00 | 0.00 | 0.00 | 36 | 1006.2 |
| 20260504233817 | 68 | 202 | 3.5 | 7.8 | 0.00 | 0.00 | 0.00 | 36 | 1006.2 |
| 20260504233312 | 69 | 210 | 3.5 | 4.3 | 0.00 | 0.00 | 0.00 | 36 | 1005.9 |
| 20260504232809 | 69 | 227 | 4.3 | 10.4 | 0.00 | 0.00 | 0.00 | 35 | 1006.0 |
| 20260504232307 | 70 | 237 | 1.7 | 13.0 | 0.00 | 0.00 | 0.00 | 35 | 1005.8 |
| 20260504231803 | 70 | 266 | 1.7 | 7.8 | 0.00 | 0.00 | 0.00 | 35 | 1005.9 |
| 20260504231300 | 70 | 209 | 8.7 | 12.2 | 0.00 | 0.00 | 0.00 | 34 | 1005.9 |
| 20260504230756 | 71 | 219 | 13.9 | 17.4 | 0.00 | 0.00 | 0.00 | 33 | 1005.6 |
| 20260504230254 | 71 | 251 | 2.6 | 7.8 | 0.00 | 0.00 | 0.00 | 33 | 1005.6 |
| 20260504225753 | 71 | 242 | 6.1 | 10.4 | 0.00 | 0.00 | 0.00 | 33 | 1005.5 |
| 20260504225248 | 71 | 230 | 5.2 | 11.3 | 0.00 | 0.00 | 0.00 | 33 | 1005.7 |
| 20260504224746 | 70 | 261 | 4.3 | 13.9 | 0.00 | 0.00 | 0.00 | 34 | 1005.5 |
| 20260504224243 | 71 | 241 | 8.7 | 13.9 | 0.00 | 0.00 | 0.00 | 33 | 1005.3 |
| 20260504223739 | 71 | 295 | 5.2 | 16.5 | 0.00 | 0.00 | 0.00 | 33 | 1005.4 |
| 20260504223235 | 71 | 253 | 7.0 | 12.2 | 0.00 | 0.00 | 0.00 | 33 | 1005.5 |
| 20260504222732 | 71 | 236 | 7.0 | 16.5 | 0.00 | 0.00 | 0.00 | 32 | 1005.2 |
| 20260504222229 | 72 | 222 | 6.1 | 10.4 | 0.00 | 0.00 | 0.00 | 32 | 1005.6 |
| 20260504221726 | 72 | 263 | 7.8 | 14.8 | 0.00 | 0.00 | 0.00 | 33 | 1005.5 |
| 20260504221223 | 72 | 201 | 13.0 | 16.5 | 0.00 | 0.00 | 0.00 | 32 | 1005.3 |
| 20260504220720 | 71 | 242 | 10.4 | 12.2 | 0.00 | 0.00 | 0.00 | 32 | 1005.4 |
| 20260504220217 | 71 | 262 | 6.1 | 13.0 | 0.00 | 0.00 | 0.00 | 32 | 1005.1 |
| 20260504215714 | 72 | 290 | 3.5 | 17.4 | 0.00 | 0.00 | 0.00 | 31 | 1005.4 |
| 20260504215211 | 73 | 267 | 4.3 | 17.4 | 0.00 | 0.00 | 0.00 | 31 | 1005.2 |
| 20260504214707 | 72 | 225 | 14.8 | 21.7 | 0.00 | 0.00 | 0.00 | 31 | 1005.3 |
| 20260504214203 | 73 | 248 | 7.8 | 15.6 | 0.00 | 0.00 | 0.00 | 32 | 1005.6 |
| 20260504213700 | 72 | 261 | 5.2 | 13.9 | 0.00 | 0.00 | 0.00 | 32 | 1005.2 |
| 20260504213157 | 72 | 231 | 4.3 | 18.2 | 0.00 | 0.00 | 0.00 | 31 | 1005.4 |
| 20260504212653 | 73 | 267 | 11.3 | 20.9 | 0.00 | 0.00 | 0.00 | 31 | 1005.5 |
| 20260504212150 | 73 | 221 | 9.6 | 18.2 | 0.00 | 0.00 | 0.00 | 31 | 1005.1 |
| 20260504211647 | 73 | 263 | 5.2 | 8.7 | 0.00 | 0.00 | 0.00 | 31 | 1005.1 |
| 20260504211144 | 72 | 247 | 8.7 | 13.9 | 0.00 | 0.00 | 0.00 | 31 | 1005.5 |
| 20260504210642 | 72 | 238 | 6.1 | 22.6 | 0.00 | 0.00 | 0.00 | 31 | 1005.3 |
| 20260504210138 | 73 | 246 | 9.6 | 17.4 | 0.00 | 0.00 | 0.00 | 30 | 1005.4 |
| 20260504205636 | 72 | 237 | 7.8 | 24.3 | 0.00 | 0.00 | 0.00 | 30 | 1005.4 |
| 20260504205132 | 71 | 214 | 9.6 | 20.0 | 0.00 | 0.00 | 0.00 | 32 | 1005.6 |
| 20260504204631 | 72 | 279 | 6.1 | 14.8 | 0.00 | 0.00 | 0.00 | 30 | 1005.5 |
| 20260504204130 | 73 | 257 | 4.3 | 12.2 | 0.00 | 0.00 | 0.00 | 31 | 1005.5 |
| 20260504203628 | 72 | 293 | 5.2 | 17.4 | 0.00 | 0.00 | 0.00 | 30 | 1005.6 |
| 20260504203126 | 73 | 218 | 15.6 | 15.6 | 0.00 | 0.00 | 0.00 | 30 | 1005.5 |
| 20260504202625 | 72 | 286 | 6.1 | 18.2 | 0.00 | 0.00 | 0.00 | 30 | 1005.6 |
| 20260504202123 | 72 | 272 | 5.2 | 14.8 | 0.00 | 0.00 | 0.00 | 30 | 1005.6 |
| 20260504201619 | 73 | 263 | 6.1 | 18.2 | 0.00 | 0.00 | 0.00 | 30 | 1005.4 |
| 20260504201117 | 72 | 255 | 11.3 | 25.2 | 0.00 | 0.00 | 0.00 | 30 | 1005.5 |
| 20260504200614 | 74 | 245 | 13.9 | 19.1 | 0.00 | 0.00 | 0.00 | 29 | 1005.5 |
| 20260504200110 | 72 | 252 | 3.5 | 18.2 | 0.00 | 0.00 | 0.00 | 30 | 1005.7 |
| 20260504195607 | 72 | 278 | 13.9 | 20.0 | 0.00 | 0.00 | 0.00 | 30 | 1005.6 |
| 20260504195103 | 71 | 258 | 6.1 | 20.9 | 0.00 | 0.00 | 0.00 | 31 | 1005.6 |
| 20260504194600 | 71 | 252 | 10.4 | 22.6 | 0.00 | 0.00 | 0.00 | 31 | 1005.6 |
| 20260504194055 | 72 | 247 | 21.7 | 21.7 | 0.00 | 0.00 | 0.00 | 29 | 1005.5 |
| 20260504193552 | 72 | 251 | 13.0 | 24.3 | 0.00 | 0.00 | 0.00 | 30 | 1005.8 |
| 20260504193051 | 71 | 219 | 12.2 | 20.9 | 0.00 | 0.00 | 0.00 | 31 | 1005.7 |
| 20260504192549 | 71 | 235 | 13.0 | 22.6 | 0.00 | 0.00 | 0.00 | 30 | 1005.7 |
| 20260504192046 | 72 | 250 | 12.2 | 23.5 | 0.00 | 0.00 | 0.00 | 30 | 1005.8 |
| 20260504191544 | 72 | 273 | 8.7 | 14.8 | 0.00 | 0.00 | 0.00 | 30 | 1005.9 |
| 20260504191040 | 71 | 253 | 9.6 | 24.3 | 0.00 | 0.00 | 0.00 | 30 | 1005.9 |
| 20260504190537 | 72 | 216 | 11.3 | 22.6 | 0.00 | 0.00 | 0.00 | 31 | 1005.9 |
| 20260504190032 | 71 | 230 | 5.2 | 21.7 | 0.00 | 0.00 | 0.00 | 30 | 1006.0 |
| 20260504185530 | 72 | 294 | 6.1 | 41.7 | 0.00 | 0.00 | 0.00 | 31 | 1006.0 |
| 20260504185026 | 71 | 240 | 5.2 | 20.9 | 0.00 | 0.00 | 0.00 | 30 | 1006.0 |
| 20260504184521 | 71 | 247 | 20.0 | 25.2 | 0.00 | 0.00 | 0.00 | 30 | 1006.1 |
| 20260504184017 | 71 | 260 | 7.0 | 22.6 | 0.00 | 0.00 | 0.00 | 32 | 1006.2 |
| 20260504183515 | 71 | 271 | 7.8 | 23.5 | 0.00 | 0.00 | 0.00 | 30 | 1006.2 |
| 20260504183013 | 70 | 242 | 16.5 | 28.7 | 0.00 | 0.00 | 0.00 | 30 | 1006.2 |
| 20260504182509 | 70 | 209 | 9.6 | 22.6 | 0.00 | 0.00 | 0.00 | 30 | 1006.3 |
| 20260504182007 | 71 | 226 | 29.5 | 29.5 | 0.00 | 0.00 | 0.00 | 31 | 1006.3 |
| 20260504181503 | 70 | 227 | 18.2 | 31.3 | 0.00 | 0.00 | 0.00 | 30 | 1006.4 |
| 20260504181002 | 71 | 236 | 8.7 | 20.9 | 0.00 | 0.00 | 0.00 | 32 | 1006.4 |
| 20260504180500 | 71 | 217 | 13.0 | 23.5 | 0.00 | 0.00 | 0.00 | 31 | 1006.4 |
| 20260504175959 | 69 | 274 | 4.3 | 23.5 | 0.00 | 0.00 | 0.00 | 32 | 1006.2 |
| 20260504175455 | 70 | 271 | 12.2 | 29.5 | 0.00 | 0.00 | 0.00 | 31 | 1006.5 |
| 20260504174953 | 70 | 235 | 6.1 | 21.7 | 0.00 | 0.00 | 0.00 | 30 | 1006.4 |
| 20260504174450 | 70 | 244 | 8.7 | 25.2 | 0.00 | 0.00 | 0.00 | 31 | 1006.5 |
| 20260504173947 | 69 | 271 | 11.3 | 26.1 | 0.00 | 0.00 | 0.00 | 32 | 1006.9 |
| 20260504173443 | 70 | 269 | 3.5 | 19.1 | 0.00 | 0.00 | 0.00 | 33 | 1006.6 |
| 20260504172942 | 69 | 288 | 13.0 | 24.3 | 0.00 | 0.00 | 0.00 | 32 | 1006.7 |
| 20260504172437 | 68 | 265 | 7.8 | 31.3 | 0.00 | 0.00 | 0.00 | 32 | 1006.9 |
| 20260504171934 | 69 | 293 | 17.4 | 21.7 | 0.00 | 0.00 | 0.00 | 32 | 1006.8 |
| 20260504171431 | 69 | 273 | 13.0 | 23.5 | 0.00 | 0.00 | 0.00 | 32 | 1006.9 |
| 20260504170928 | 69 | 245 | 12.2 | 29.5 | 0.00 | 0.00 | 0.00 | 31 | 1006.7 |
| 20260504170424 | 68 | 232 | 10.4 | 26.1 | 0.00 | 0.00 | 0.00 | 34 | 1006.8 |
| 20260504160343 | 67 | 236 | 8.7 | 29.5 | 0.00 | 0.00 | 0.00 | 36 | 1007.3 |
| 20260504150808 | 65 | 274 | 8.7 | 19.1 | 0.00 | 0.00 | 0.00 | 39 | 1008.3 |
| 20260504150304 | 64 | 271 | 9.6 | 13.0 | 0.00 | 0.00 | 0.00 | 39 | 1008.7 |
| 20260504141235 | 62 | 243 | 10.4 | 23.5 | 0.00 | 0.00 | 0.00 | 41 | 1009.2 |
| 20260504140731 | 62 | 254 | 17.4 | 20.9 | 0.00 | 0.00 | 0.00 | 41 | 1009.3 |
| 20260504140227 | 62 | 268 | 5.2 | 15.6 | 0.00 | 0.00 | 0.00 | 42 | 1009.2 |
| 20260504130655 | 59 | 246 | 16.5 | 20.9 | 0.00 | 0.00 | 0.00 | 45 | 1009.9 |
| 20260504130151 | 60 | 232 | 12.2 | 13.0 | 0.00 | 0.00 | 0.00 | 45 | 1010.2 |
| 20260504120116 | 52 | 253 | 9.6 | 13.0 | 0.00 | 0.00 | 0.00 | 54 | 1011.0 |
| 20260504110543 | 48 | 195 | 3.5 | 7.0 | 0.00 | 0.00 | 0.00 | 60 | 1011.0 |
| 20260504100500 | 46 | 234 | 2.6 | 7.0 | 0.00 | 0.00 | 0.00 | 62 | 1010.7 |
| 20260504081858 | 45 | 246 | 2.6 | 6.1 | 0.00 | 0.00 | 0.00 | 61 | 1010.6 |
| 20260504081354 | 45 | 227 | 1.7 | 5.2 | 0.00 | 0.00 | 0.00 | 60 | 1010.5 |
| 20260504080850 | 45 | 198 | 4.3 | 6.1 | 0.00 | 0.00 | 0.00 | 60 | 1010.5 |
| 20260504080348 | 45 | 227 | 1.7 | 5.2 | 0.00 | 0.00 | 0.00 | 60 | 1010.5 |
| 20260504070315 | 43 | 228 | 2.6 | 5.2 | 0.00 | 0.00 | 0.00 | 60 | 1010.3 |
| 20260504060235 | 42 | 243 | 7.0 | 7.0 | 0.00 | 0.00 | 0.00 | 64 | 1010.5 |